Miscellaneous Local Product
Issued by NWS North Platte, NE

Home | Current Version | Previous Version | Text Only | Print | Product List | Glossary On
Versions: 1 2 3 4 5 6 7 8 9 10 11 12 13 14 15 16 17 18 19 20 21 22 23 24 25 26 27 28 29 30 31 32 33 34 35 36 37 38 39 40 41 42 43 44 45 46 47 48 49 50
000
AXUS43 KLBF 300610
MISLBF


WESTERN AND NORTH CENTRAL NEBRASKA HOURLY WEATHER ROUNDUP
NATIONAL WEATHER SERVICE NORTH PLATTE NE
100 AM CDT TUE JUN 30 2015

***STATIONS NOT REPORTING VARIABLES SUCH AS SKY/WEATHER OR
PRESSURE ARE PROVIDED BY THE NEBRASKA DEPARTMENT OF
ROADS...RAWS...AND APRS NETWORKS...AND ARE NOT UNDER
NATIONAL WEATHER SERVICE QUALITY CONTROL***

...OBSERVATIONS IN AND NEAR THE EASTERN PANHANDLE OF NEBRASKA...

CITY           SKY/WX    TMP DP  RH WIND       PRES   REMARKS
PINE RIDGE     CLEAR     61  57  87 CALM      30.06F
CHADRON        CLEAR     61  58  90 W5        30.06F
ALLIANCE       PTCLDY    58  56  93 W7        30.11S
SIDNEY         CLEAR     64  57  78 S5        30.15S
WHITECLAY        N/A     62  58  86 S3          N/A
CRESCENT LAKE    N/A     71  57  61 CALM        N/A
$$

...OBSERVATIONS IN NORTH CENTRAL NEBRASKA...

CITY           SKY/WX    TMP DP  RH WIND       PRES   REMARKS
VALENTINE      CLEAR     63  60  90 SW5       30.02S
THEDFORD       CLEAR     67  61  79 CALM      30.07R
AINSWORTH      CLEAR     66  60  83 CALM      30.02S
O`NEILL        CLEAR     68  63  84 SW6       29.98S
ORD            CLEAR     63  58  83 CALM      29.99R
BROKEN BOW     CLEAR     64  60  87 CALM      30.03R
SPRINGVIEW       N/A     63  59  88 CALM        N/A
HALSEY           N/A     69  58  68 CALM        N/A
BREWSTER         N/A     68  62  79 CALM        N/A
ROSE             N/A     85  72  64 CALM        N/A  HX  91
NEWPORT          N/A     67  62  85 CALM        N/A
SARGENT          N/A     64  61  91 CALM        N/A
CHAMBERS         N/A     69  60  74 S3          N/A
EWING            N/A     66  63  89 CALM        N/A
$$

...OBSERVATIONS IN SOUTHWEST NEBRASKA AND FAR NORTHEAST COLORADO...

CITY           SKY/WX    TMP DP  RH WIND       PRES   REMARKS
WRAY           FAIR      67  56  69 SW5       30.11S
HOLYOKE        FAIR      68  59  73 SW6       30.11S
IMPERIAL       CLEAR     69  56  62 SW3       30.08R
OGALLALA       CLEAR     63  57  81 CALM      30.08R
NORTH PLATTE   CLEAR     67  61  81 E3        30.06R
MCCOOK         CLEAR     74  58  57 S3        30.04R
LEXINGTON      CLEAR     65  62  88 CALM      30.03S
PAXTON           N/A     67  60  79 CALM        N/A
GOTHENBURG       N/A     71  60  67 CALM        N/A
CALLAWAY         N/A     62  59  90 CALM        N/A
$$

...NORTH PLATTE AREA...

CITY           SKY/WX    TMP DP  RH WIND       PRES   REMARKS
AIRPORT        CLEAR     67  61  81 E3        30.06R
DOWNTOWN         N/A     72  64  74 CALM        N/A
HILLCREST        N/A     71  61  70 E3          N/A
$$

...SOME WEATHER OBSERVATIONS FROM AROUND THE REGION...

CITY           SKY/WX    TMP DP  RH WIND       PRES   REMARKS
DENVER         PTCLDY    67  54  63 S9        30.22F
LARAMIE        CLEAR     55  43  63 SW6       30.35F
CHEYENNE       CLEAR     60  48  64 W12       30.27F
SCOTTSBLUFF    CLEAR     67  56  67 CALM      30.12S
RAPID CITY     PTCLDY    66  59  78 W6        30.02F
PIERRE         LGT RAIN  72  61  68 E3        29.91S
WINNER         FAIR      73  55  53 S5        29.95F
SIOUX FALLS    CLEAR     68  63  84 CALM      29.92S
OMAHA          CLOUDY    70  63  78 CALM      29.92R
GRAND ISLAND   CLEAR     69  61  75 CALM      29.99S
KANSAS CITY    MOCLDY    71  65  81 W3        29.94R
WICHITA        PTCLDY    70  60  70 SW6       29.99R
HAYS           CLEAR     72  52  49 SE9       30.01S
LIBERAL        CLEAR     72  59  64 S3          N/A
GOODLAND       CLEAR     67  57  70 SW8       30.11R
$$



USA.gov is the U.S. government's official web portal to all federal, state and local government web resources and services.